Location: Boston
(42.3580°N, 71.0600°W)
Time: 08:38:25
(UTC-04:00)

Envisat - Pass Details

Date: 13 October 2017
Orbit: 764 x 766 km, 98.2° (Epoch: 20 October)

Event Time Altitude Azimuth Distance (km) Brightness Sun altitude
Exits shadow 20:56:59 47° 299° (WNW) 1,013 3.9 -32.2°
Drops below altitude 10° 21:01:01 10° 338° (NNW) 2,310 5.9 -32.9°
Sets 21:03:23 0° 343° (NNW) 3,240 6.7 -33.3°
